STARLINK-31807

Satellite information

Favourite Embed

Satellite Type and Status

PAYLOADIN ORBIT

Key statistics

Satellite STARLINK-31807 at a glance.

Uptime

553

Days in orbit

Revolutions

≈ 15.3

Per day

Orbit

LEO

Low Earth Orbit

Inclination

43.0

Latest

Satellite identification and parameters

Extended collection of information and parameters for STARLINK-31807.

Object identification

Identified? True

Debris? False

Object name: STARLINK-31807

International designator: 2024-082J

Object number (NORAD): 59639

Object ID (CCSDS): 59639

Country: UNITED STATES OF AMERICA (US)

Current information (Y/N): Y

RCS size: LARGE

Orbital parameters

Period: 94.267 minutes

Inclination: 43.0025 deg

SMA: 6861.189 km

Apoapsis: 484.062 km

Periapsis: 482.046 km

RAAN: 115.6066 deg

Eccentricy: 0.00014694

Argument of periapsis: 257.6032 deg

Mean anomaly: 102.4656 deg

Mean motion: 15.27578936 rev/day

Mean motion (dot): 0.00000884 rev/day2

B* drag term: 0.000041640173 1/REarth

Two-line elements (TLE)

Creation date: Nov. 7, 2025, 2:17 a.m.

Reference frame: TEME

Reference center: EARTH

Epoch: Nov. 6, 2025, 12:50 p.m. UTC

TLE line 0: 0 STARLINK-31807

TLE line 1: 1 59639U 24082J 25310.53492750 .00000884 00000-0 41640-4 0 9993

TLE line 2: 2 59639 43.0025 115.6066 0001469 257.6032 102.4656 15.27578936 85974

Live tracking on map

Real-time ground track for satellite STARLINK-31807.

In-orbit conjunctions

There are no conjunctions computed for STARLINK-31807, at the moment. Check back to stay up to date, as we update our databases every day.

Go to all conjunctions

Associated space launch

A batch of 23 satellites for the Starlink mega-constellation - SpaceX's project for space-based Internet communication system.

STARLINK-31807 was lifted into orbit during the mission ‘Falcon 9 Block 5 | Starlink Group 6-55’, on board a Falcon 9 space rocket.

The launch took place on May 3, 2024, 2:37 a.m. from Space Launch Complex 40.

For more information about the launch, click the button.

Launch to space Falcon 9 Block 5 | Starlink Group 6-55
Falcon 9 Block 5 | Starlink Group 6-55

Agency: SpaceX

Status: Launch Successful

Launch date: May 3, 2024, 2:37 a.m. UTC

Rocket: Falcon 9

Launch pad: Space Launch Complex 40

Location: Cape Canaveral SFS, FL, USA

...

Latest news about this satellite

News about space launch
Launch Roundup: China returns to the moon, SpaceX keeps up high launch cadence

This week, China returns to the Moon with the Chang’e-6 mission, making the first-ever attempt to collect samples from a site on the far side, near the lunar South Pole.


Newsletter sign-up

Weekly statistics, charts and insights to help you stay on top of the space industry.